GW0352 Weather Reports


time (UTC)temp
F
wind
direction
speed
knots
gust
knots
rain 1hr
in
rain 24hr
in
rain mn
in
humidity
%
barometer
mb
20260505070541 69 25 7.0 11.3 0.00 0.00 0.00 72 1002.7
20260505070047 69 17 4.3 7.8 0.00 0.00 0.00 71 1002.5
20260505065541 69 36 4.3 8.7 0.00 0.00 0.00 71 1002.5
20260505065040 69 30 5.2 8.7 0.00 0.00 0.00 70 1002.4
20260505064549 70 9 5.2 10.4 0.00 0.00 0.00 70 1002.4
20260505064040 70 40 6.1 10.4 0.00 0.00 0.00 70 1002.6
20260505063543 70 34 4.3 7.8 0.00 0.00 0.00 71 1002.5
20260505063051 70 27 2.6 5.2 0.00 0.00 0.00 71 1002.4
20260505062540 70 41 2.6 7.8 0.00 0.00 0.00 71 1002.2
20260505062039 70 83 1.7 7.8 0.00 0.00 0.00 71 1002.0
20260505061551 70 117 2.6 9.6 0.00 0.00 0.00 71 1001.9
20260505061041 70 146 5.2 11.3 0.00 0.00 0.00 71 1001.9
20260505060540 70 134 5.2 11.3 0.00 0.00 0.00 71 1001.8
20260505060050 70 126 1.7 7.8 0.00 0.00 0.00 71 1001.8
20260505055540 70 137 2.6 7.8 0.00 0.00 0.00 71 1001.9
20260505055040 70 41 1.7 9.6 0.00 0.00 0.00 71 1001.9
20260505054549 70 110 1.7 11.3 0.00 0.00 0.00 70 1001.9
20260505054040 70 93 2.6 11.3 0.00 0.00 0.00 70 1001.8
20260505053539 70 160 4.3 13.0 0.00 0.00 0.00 70 1001.5
20260505053052 70 140 6.1 14.8 0.00 0.00 0.00 69 1001.5
20260505052539 70 175 7.8 14.8 0.00 0.00 0.00 69 1001.4
20260505052040 70 140 7.8 14.8 0.00 0.00 0.00 68 1001.3
20260505051549 70 153 7.0 15.6 0.00 0.00 0.00 68 1001.2
20260505051041 70 164 7.8 15.6 0.00 0.00 0.00 69 1001.3
20260505050541 70 126 5.2 13.0 0.00 0.00 0.00 71 1001.3
20260505041548 70 51 2.6 6.1 0.00 0.00 0.00 73 1001.2
20260505041040 71 93 2.6 6.1 0.00 0.00 0.00 72 1001.2
20260505040540 71 121 1.7 6.1 0.00 0.00 0.00 72 1001.1
20260505040051 71 108 2.6 8.7 0.00 0.00 0.00 71 1001.1
20260505035540 72 68 2.6 9.6 0.00 0.00 0.00 71 1001.1
20260505035042 72 178 4.3 10.4 0.00 0.00 0.00 70 1001.1
20260505034549 72 169 5.2 10.4 0.00 0.00 0.00 69 1001.0
20260505034040 72 225 5.2 10.4 0.00 0.00 0.00 68 1001.0
20260505033540 72 130 4.3 9.6 0.00 0.00 0.00 67 1001.0
20260505033052 73 163 4.3 8.7 0.00 0.00 0.00 67 1001.1
20260505032540 73 221 3.5 8.7 0.00 0.00 0.00 66 1001.3
20260505032039 73 247 2.6 10.4 0.00 0.00 0.00 66 1001.5
20260505031552 73 227 5.2 12.2 0.00 0.00 0.00 66 1001.4
20260505031041 73 217 5.2 12.2 0.00 0.00 0.00 65 1001.6
20260505030542 73 147 7.8 13.9 0.00 0.00 0.00 65 1001.3
20260505030049 73 146 8.7 13.9 0.00 0.00 0.00 65 1001.3
20260505025541 73 148 6.1 10.4 0.00 0.00 0.00 65 1001.4
20260505025041 73 141 6.1 10.4 0.00 0.00 0.00 65 1001.4
20260505024552 73 144 6.1 9.6 0.00 0.00 0.00 64 1001.6
20260505024040 74 140 5.2 9.6 0.00 0.00 0.00 64 1001.5
20260505023540 74 78 2.6 6.1 0.00 0.00 0.00 63 1001.4
20260505023054 74 98 2.6 6.1 0.00 0.00 0.00 63 1001.4
20260505022540 74 115 2.6 6.1 0.00 0.00 0.00 62 1001.5
20260505022043 74 51 2.6 6.1 0.00 0.00 0.00 62 1001.6
20260505021545 74 123 1.7 8.7 0.00 0.00 0.00 61 1001.7
20260505021039 74 100 5.2 9.6 0.00 0.00 0.00 61 1001.5
20260505020539 74 153 4.3 10.4 0.00 0.00 0.00 61 1001.8
20260505020048 75 155 4.3 10.4 0.00 0.00 0.00 60 1001.8
20260505015540 75 207 4.3 8.7 0.00 0.00 0.00 60 1001.7
20260505015040 75 217 3.5 9.6 0.00 0.00 0.00 59 1001.6
20260505014550 75 153 4.3 12.2 0.00 0.00 0.00 58 1001.4
20260505014040 75 131 5.2 12.2 0.00 0.00 0.00 58 1001.2
20260505013539 75 142 5.2 9.6 0.00 0.00 0.00 57 1001.2
20260505013042 75 137 4.3 10.4 0.00 0.00 0.00 57 1001.2
20260505012539 76 139 5.2 10.4 0.00 0.00 0.00 57 1001.2
20260505012040 76 214 5.2 11.3 0.00 0.00 0.00 56 1001.2
20260505011543 76 160 6.1 11.3 0.00 0.00 0.00 55 1001.0
20260505011040 76 140 6.1 12.2 0.00 0.00 0.00 55 1000.9
20260505010540 76 126 5.2 12.2 0.00 0.00 0.00 54 1001.0
20260505010104 77 150 6.1 12.2 0.00 0.00 0.00 54 1001.0
20260505005543 77 146 6.1 13.0 0.00 0.00 0.00 53 1000.8
20260505005040 77 147 6.1 13.0 0.00 0.00 0.00 53 1000.8
20260505004546 77 155 7.8 13.0 0.00 0.00 0.00 53 1001.0
20260505004039 78 144 6.1 12.2 0.00 0.00 0.00 52 1000.7
20260505003539 78 141 5.2 12.2 0.00 0.00 0.00 51 1000.9
20260505003047 78 141 6.1 12.2 0.00 0.00 0.00 50 1000.9
20260505002539 78 139 4.3 11.3 0.00 0.00 0.00 50 1000.9
20260505002039 78 213 4.3 11.3 0.00 0.00 0.00 50 1000.9
20260505001548 79 195 4.3 11.3 0.00 0.00 0.00 49 1001.0
20260505001039 79 142 7.0 11.3 0.00 0.00 0.00 49 1000.9
20260505000539 79 173 5.2 13.9 0.00 0.00 0.00 49 1000.9
20260505000048 79 171 4.3 13.9 0.00 0.00 0.00 48 1000.9
20260504235540 79 178 4.3 10.4 0.00 0.00 0.00 48 1001.0
20260504235043 79 142 3.5 9.6 0.00 0.00 0.00 48 1001.1
20260504234548 79 175 3.5 10.4 0.00 0.00 0.00 48 1001.2
20260504234040 79 173 5.2 11.3 0.00 0.00 0.00 47 1001.1
20260504233540 80 207 4.3 11.3 0.00 0.00 0.00 47 1001.1
20260504233045 80 150 5.2 9.6 0.00 0.00 0.00 47 1001.2
20260504232540 80 150 5.2 9.6 0.00 0.00 0.00 46 1001.1
20260504232039 80 156 4.3 13.9 0.00 0.00 0.00 47 1001.2
20260504231547 81 182 4.3 14.8 0.00 0.00 0.00 46 1001.2
20260504231039 81 178 6.1 14.8 0.00 0.00 0.00 45 1001.2
20260504230542 81 178 3.5 8.7 0.00 0.00 0.00 45 1001.2
20260504230047 81 178 3.5 10.4 0.00 0.00 0.00 44 1001.1
20260504225540 81 187 4.3 12.2 0.00 0.00 0.00 44 1001.1
20260504225039 81 182 5.2 12.2 0.00 0.00 0.00 44 1001.2
20260504224545 82 178 4.3 10.4 0.00 0.00 0.00 44 1001.2
20260504224039 82 173 4.3 13.9 0.00 0.00 0.00 44 1001.2
20260504223544 82 182 3.5 13.9 0.00 0.00 0.00 44 1001.2
20260504223059 82 158 7.0 14.8 0.00 0.00 0.00 43 1001.2
20260504222540 83 203 4.3 18.2 0.00 0.00 0.00 43 1001.2
20260504222039 83 178 7.0 18.2 0.00 0.00 0.00 42 1001.2
20260504221559 83 183 6.1 19.1 0.00 0.00 0.00 43 1001.3
20260504221040 83 239 5.2 19.1 0.00 0.00 0.00 42 1001.2
20260504220540 83 183 7.8 18.2 0.00 0.00 0.00 41 1001.3
20260504220046 83 183 5.2 16.5 0.00 0.00 0.00 41 1001.3
20260504215541 84 193 7.8 16.5 0.00 0.00 0.00 41 1001.4
20260504215043 84 178 7.8 17.4 0.00 0.00 0.00 41 1001.4
20260504214543 84 178 4.3 17.4 0.00 0.00 0.00 41 1001.4
20260504214041 84 183 5.2 23.5 0.00 0.00 0.00 41 1001.5
20260504213540 84 177 5.2 23.5 0.00 0.00 0.00 41 1001.4
20260504213102 84 185 7.0 22.6 0.00 0.00 0.00 41 1001.4
20260504212540 84 178 13.9 22.6 0.00 0.00 0.00 39 1001.5
20260504212042 84 178 7.8 20.0 0.00 0.00 0.00 41 1001.5
20260504211549 84 144 8.7 20.0 0.00 0.00 0.00 40 1001.6
20260504211040 84 182 9.6 19.1 0.00 0.00 0.00 38 1001.5
20260504210540 85 186 4.3 19.1 0.00 0.00 0.00 40 1001.7
20260504210049 85 178 6.1 19.1 0.00 0.00 0.00 38 1001.7
20260504205542 85 212 2.6 17.4 0.00 0.00 0.00 41 1001.8
20260504205039 85 175 4.3 17.4 0.00 0.00 0.00 39 1001.9
20260504204542 86 182 5.2 15.6 0.00 0.00 0.00 38 1001.9
20260504204039 86 93 5.2 16.5 0.00 0.00 0.00 38 1002.0
20260504203540 86 235 5.2 16.5 0.00 0.00 0.00 38 1001.9
20260504203050 86 137 7.0 16.5 0.00 0.00 0.00 36 1002.0
20260504202540 86 178 5.2 16.5 0.00 0.00 0.00 37 1001.9
20260504202041 86 185 2.6 17.4 0.00 0.00 0.00 39 1001.9
20260504201546 86 291 3.5 18.2 0.00 0.00 0.00 38 1002.1
20260504201043 86 182 11.3 18.2 0.00 0.00 0.00 36 1002.2
20260504200540 86 177 7.0 13.9 0.00 0.00 0.00 37 1002.1
20260504200049 86 0 7.0 13.9 0.00 0.00 0.00 37 1002.2
20260504195539 86 182 4.3 18.2 0.00 0.00 0.00 36 1002.3
20260504195040 86 185 3.5 18.2 0.00 0.00 0.00 38 1002.4
20260504194551 86 180 6.1 14.8 0.00 0.00 0.00 36 1002.5
20260504194040 86 178 3.5 13.0 0.00 0.00 0.00 37 1002.5
20260504193542 86 178 1.7 7.0 0.00 0.00 0.00 36 1002.5
20260504193050 86 187 0.9 11.3 0.00 0.00 0.00 37 1002.6
20260504192539 86 271 2.6 12.2 0.00 0.00 0.00 36 1002.7
20260504192042 85 178 4.3 12.2 0.00 0.00 0.00 39 1002.8
20260504191549 85 178 3.5 9.6 0.00 0.00 0.00 36 1002.7
20260504191040 84 182 3.5 12.2 0.00 0.00 0.00 39 1002.7
20260504190541 84 168 1.7 12.2 0.00 0.00 0.00 36 1002.8
20260504190053 84 178 1.7 12.2 0.00 0.00 0.00 38 1002.7
20260504185541 84 250 3.5 12.2 0.00 0.00 0.00 38 1003.0
20260504185041 84 178 1.7 10.4 0.00 0.00 0.00 41 1003.0
20260504184548 84 178 3.5 11.3 0.00 0.00 0.00 40 1003.0
20260504184041 84 232 5.2 13.0 0.00 0.00 0.00 39 1003.0
20260504183540 83 178 2.6 13.0 0.00 0.00 0.00 39 1003.0
20260504183050 83 182 6.1 13.0 0.00 0.00 0.00 40 1003.1
20260504182540 82 186 1.7 6.1 0.00 0.00 0.00 38 1003.2
20260504182040 82 196 2.6 14.8 0.00 0.00 0.00 39 1003.2
20260504181550 83 292 4.3 14.8 0.00 0.00 0.00 43 1003.3
20260504181042 82 185 2.6 13.9 0.00 0.00 0.00 41 1003.6
20260504180542 82 183 2.6 13.9 0.00 0.00 0.00 39 1003.6
20260504180051 82 183 4.3 15.6 0.00 0.00 0.00 40 1003.6
20260504175541 82 282 3.5 15.6 0.00 0.00 0.00 43 1003.8
20260504175041 81 182 4.3 14.8 0.00 0.00 0.00 41 1003.7
20260504174549 81 309 2.6 7.8 0.00 0.00 0.00 44 1003.7
20260504174041 80 0 2.6 10.4 0.00 0.00 0.00 41 1003.9
20260504173540 80 183 2.6 13.9 0.00 0.00 0.00 41 1003.9
20260504173049 81 219 4.3 13.9 0.00 0.00 0.00 41 1003.9
20260504172540 80 187 2.6 11.3 0.00 0.00 0.00 42 1003.9
20260504172041 80 200 1.7 10.4 0.00 0.00 0.00 44 1003.9
20260504171545 79 273 2.6 7.8 0.00 0.00 0.00 45 1003.9
20260504171041 79 184 3.5 9.6 0.00 0.00 0.00 44 1003.9
20260504170544 78 215 3.5 13.0 0.00 0.00 0.00 43 1003.9
20260504151039 71 198 4.3 11.3 0.00 0.00 0.00 53 1004.4
20260504150539 70 163 5.2 11.3 0.00 0.00 0.00 54 1004.4
20260504150108 70 288 2.6 9.6 0.00 0.00 0.00 54 1004.5
20260504141039 67 287 3.5 11.3 0.00 0.00 0.00 56 1004.7
20260504140539 66 207 5.2 11.3 0.00 0.00 0.00 56 1004.7
20260504130539 63 153 4.3 10.4 0.00 0.00 0.00 60 1004.7
20260504110542 62 257 1.7 7.8 0.00 0.00 0.00 57 1004.9
20260504100540 63 164 3.5 14.8 0.00 0.00 0.00 54 1005.4
20260504081552 66 196 3.5 12.2 0.00 0.00 0.00 49 1006.2
20260504081041 66 153 3.5 12.2 0.00 0.00 0.00 49 1006.3
20260504080541 66 195 4.3 14.8 0.00 0.00 0.00 49 1006.4
20260504080110 66 214 4.3 14.8 0.00 0.00 0.00 49 1006.4